• In Uzbekistan
  • List of Countries
  • For 7 days
  • Water Temperature
  • Satellite Maps
  • Weather Map
  • Weather Widgets
  • user-avatar
    Login

    Hourly Weather Buritama

    Today, 18 February, Sunday

    Time Temperature Precipitation Wind Pressure Humidity
    00:00 +24°C° 0.1 mm 2 mps 726 mmHg 89%
    01:00 +24°C° 0 mm 2 mps 725 mmHg 90%
    02:00 +24°C° 0 mm 2 mps 725 mmHg 92%
    03:00 +23°C° 0 mm 2 mps 725 mmHg 93%
    04:00 +23°C° 0 mm 2 mps 725 mmHg 93%
    05:00 +23°C° 0 mm 2 mps 725 mmHg 93%
    06:00 +23°C° 0 mm 2 mps 724 mmHg 93%
    07:00 +24°C° 0 mm 2 mps 725 mmHg 90%
    08:00 +25°C° 0 mm 2 mps 725 mmHg 87%
    09:00 +26°C° 0 mm 2 mps 725 mmHg 84%
    10:00 +28°C° 0.3 mm 3 mps 725 mmHg 77%
    11:00 +30°C° 0.3 mm 3 mps 725 mmHg 69%
    12:00 +31°C° 0.3 mm 3 mps 724 mmHg 62%
    13:00 +33°C° 0 mm 3 mps 724 mmHg 60%
    14:00 +33°C° 0 mm 3 mps 723 mmHg 59%
    15:00 +32°C° 0 mm 2 mps 722 mmHg 57%
    16:00 +31°C° 1.2 mm 2 mps 722 mmHg 64%
    17:00 +30°C° 1.2 mm 1 mps 722 mmHg 71%
    18:00 +29°C° 1.2 mm 1 mps 722 mmHg 78%
    19:00 +28°C° 1.4 mm 1 mps 722 mmHg 82%
    20:00 +26°C° 1.4 mm 2 mps 723 mmHg 85%
    21:00 +25°C° 1.4 mm 2 mps 723 mmHg 89%
    22:00 +25°C° 0.6 mm 2 mps 723 mmHg 90%
    23:00 +25°C° 0.6 mm 2 mps 723 mmHg 91%

    Tomorrow, 19 February, Monday

    Time Temperature Precipitation Wind Pressure Humidity
    00:00 +24°C° 0.6 mm 2 mps 723 mmHg 92%
    01:00 +24°C° 0.1 mm 2 mps 723 mmHg 92%
    02:00 +24°C° 0.1 mm 2 mps 722 mmHg 93%
    03:00 +24°C° 0.1 mm 2 mps 722 mmHg 94%
    04:00 +24°C° 0 mm 2 mps 722 mmHg 94%
    05:00 +23°C° 0 mm 2 mps 722 mmHg 94%
    06:00 +23°C° 0 mm 2 mps 722 mmHg 94%
    07:00 +24°C° 0.1 mm 3 mps 723 mmHg 90%
    08:00 +25°C° 0.1 mm 3 mps 723 mmHg 86%
    09:00 +27°C° 0.1 mm 3 mps 724 mmHg 83%
    10:00 +27°C° 0.9 mm 3 mps 724 mmHg 80%
    11:00 +28°C° 0.9 mm 4 mps 724 mmHg 76%
    12:00 +29°C° 0.9 mm 4 mps 724 mmHg 73%
    13:00 +29°C° 1.1 mm 3 mps 723 mmHg 74%
    14:00 +29°C° 1.1 mm 3 mps 722 mmHg 74%
    15:00 +29°C° 1.1 mm 3 mps 722 mmHg 75%
    16:00 +29°C° 0.7 mm 3 mps 722 mmHg 77%
    17:00 +28°C° 0.7 mm 2 mps 722 mmHg 80%
    18:00 +28°C° 0.7 mm 1 mps 721 mmHg 83%
    19:00 +27°C° 0.1 mm 1 mps 722 mmHg 84%
    20:00 +26°C° 0.1 mm 1 mps 722 mmHg 86%
    21:00 +23°C° 0.1 mm 0 mps 723 mmHg 87%
    22:00 +25°C° 0 mm 1 mps 723 mmHg 87%
    23:00 +25°C° 0 mm 1 mps 723 mmHg 87%

    Day after tomorrow, 20 February, Tuesday

    Time Temperature Precipitation Wind Pressure Humidity
    00:00 +25°C° 0 mm 1 mps 723 mmHg 86%
    01:00 +25°C° 0 mm 1 mps 723 mmHg 87%
    02:00 +24°C° 0 mm 2 mps 722 mmHg 88%
    03:00 +24°C° 0 mm 2 mps 722 mmHg 89%
    04:00 +24°C° 0 mm 2 mps 722 mmHg 90%
    05:00 +24°C° 0 mm 2 mps 722 mmHg 90%
    06:00 +24°C° 0 mm 2 mps 722 mmHg 91%
    07:00 +25°C° 0.3 mm 2 mps 723 mmHg 89%
    08:00 +26°C° 0.3 mm 3 mps 723 mmHg 87%
    09:00 +26°C° 0.3 mm 3 mps 724 mmHg 85%
    10:00 +28°C° 1.3 mm 4 mps 724 mmHg 81%
    11:00 +29°C° 1.3 mm 4 mps 723 mmHg 76%
    12:00 +30°C° 1.3 mm 4 mps 723 mmHg 72%
    13:00 +30°C° 1.2 mm 4 mps 723 mmHg 71%
    14:00 +32°C° 1.2 mm 4 mps 722 mmHg 70%
    15:00 +31°C° 1.2 mm 3 mps 722 mmHg 69%
    16:00 +30°C° 1.2 mm 3 mps 721 mmHg 74%
    17:00 +29°C° 1.2 mm 2 mps 721 mmHg 79%
    18:00 +28°C° 1.2 mm 2 mps 721 mmHg 84%
    19:00 +28°C° 0.6 mm 2 mps 722 mmHg 86%
    20:00 +27°C° 0.6 mm 2 mps 722 mmHg 88%
    21:00 +26°C° 0.6 mm 1 mps 722 mmHg 90%
    22:00 +26°C° 0.2 mm 2 mps 723 mmHg 91%
    23:00 +25°C° 0.2 mm 2 mps 723 mmHg 92%

    21 February, Wednesday

    Time Temperature Precipitation Wind Pressure Humidity
    00:00 +25°C° 0.2 mm 2 mps 723 mmHg 93%
    01:00 +25°C° 0 mm 2 mps 722 mmHg 93%
    02:00 +25°C° 0 mm 2 mps 722 mmHg 94%
    03:00 +24°C° 0 mm 3 mps 722 mmHg 94%
    04:00 +24°C° 0.7 mm 3 mps 722 mmHg 95%
    05:00 +24°C° 0.7 mm 3 mps 722 mmHg 95%
    06:00 +24°C° 0.7 mm 3 mps 722 mmHg 95%
    07:00 +25°C° 0.3 mm 3 mps 723 mmHg 93%
    08:00 +26°C° 0.3 mm 3 mps 723 mmHg 90%
    09:00 +27°C° 0.3 mm 4 mps 724 mmHg 87%
    10:00 +28°C° 0.5 mm 4 mps 724 mmHg 83%
    11:00 +29°C° 0.5 mm 4 mps 723 mmHg 79%
    12:00 +30°C° 0.5 mm 4 mps 723 mmHg 75%
    13:00 +30°C° 0.2 mm 4 mps 723 mmHg 74%
    14:00 +30°C° 0.2 mm 3 mps 722 mmHg 73%
    15:00 +30°C° 0.2 mm 3 mps 721 mmHg 72%
    16:00 +30°C° 0 mm 3 mps 721 mmHg 75%
    17:00 +29°C° 0 mm 2 mps 721 mmHg 78%
    18:00 +29°C° 0 mm 2 mps 721 mmHg 81%
    19:00 +28°C° 0.1 mm 1 mps 721 mmHg 83%
    20:00 +27°C° 0.1 mm 1 mps 721 mmHg 85%
    21:00 +26°C° 0.1 mm 1 mps 721 mmHg 87%
    22:00 +26°C° 0.1 mm 1 mps 721 mmHg 88%
    23:00 +26°C° 0.1 mm 1 mps 722 mmHg 90%

    22 February, Thursday

    Time Temperature Precipitation Wind Pressure Humidity
    00:00 +25°C° 0.1 mm 2 mps 722 mmHg 92%
    01:00 +25°C° 0.7 mm 1 mps 721 mmHg 93%
    02:00 +25°C° 0.7 mm 1 mps 721 mmHg 94%
    03:00 +24°C° 0.7 mm 1 mps 720 mmHg 95%
    04:00 +24°C° 0.5 mm 1 mps 721 mmHg 95%
    05:00 +24°C° 0.5 mm 1 mps 721 mmHg 95%
    06:00 +24°C° 0.5 mm 1 mps 721 mmHg 96%
    07:00 +25°C° 0.6 mm 1 mps 722 mmHg 91%
    08:00 +27°C° 0.6 mm 1 mps 722 mmHg 87%
    09:00 +28°C° 0.6 mm 1 mps 722 mmHg 83%
    10:00 +29°C° 0.8 mm 1 mps 722 mmHg 78%
    11:00 +30°C° 0.8 mm 1 mps 722 mmHg 73%
    12:00 +31°C° 0.8 mm 1 mps 722 mmHg 69%
    13:00 +31°C° 1.2 mm 1 mps 722 mmHg 69%
    14:00 +31°C° 1.2 mm 1 mps 721 mmHg 69%
    15:00 +31°C° 1.2 mm 1 mps 720 mmHg 69%
    16:00 +31°C° 0.5 mm 1 mps 720 mmHg 72%
    17:00 +31°C° 0.5 mm 1 mps 720 mmHg 75%
    18:00 +29°C° 0.5 mm 0 mps 720 mmHg 77%
    19:00 +29°C° 1.6 mm 1 mps 721 mmHg 82%
    20:00 +27°C° 1.6 mm 2 mps 721 mmHg 86%
    21:00 +26°C° 1.6 mm 2 mps 722 mmHg 90%
    22:00 +26°C° 0.4 mm 3 mps 722 mmHg 91%
    23:00 +25°C° 0.4 mm 3 mps 722 mmHg 92%

    23 February, Friday

    Time Temperature Precipitation Wind Pressure Humidity
    00:00 +25°C° 0.4 mm 3 mps 722 mmHg 92%
    01:00 +25°C° 0 mm 4 mps 722 mmHg 93%
    02:00 +23°C° 0 mm 4 mps 722 mmHg 93%
    03:00 +23°C° 0 mm 4 mps 722 mmHg 93%
    04:00 +23°C° 0.1 mm 4 mps 722 mmHg 93%
    05:00 +23°C° 0.1 mm 4 mps 722 mmHg 93%
    06:00 +23°C° 0.1 mm 4 mps 722 mmHg 93%
    07:00 +23°C° 0.1 mm 4 mps 723 mmHg 92%
    08:00 +25°C° 0.1 mm 4 mps 723 mmHg 91%
    09:00 +25°C° 0.1 mm 4 mps 724 mmHg 90%
    10:00 +26°C° 0.1 mm 4 mps 724 mmHg 87%
    11:00 +27°C° 0.1 mm 4 mps 723 mmHg 83%
    12:00 +28°C° 0.1 mm 4 mps 723 mmHg 80%
    13:00 +28°C° 0.4 mm 4 mps 723 mmHg 79%
    14:00 +29°C° 0.4 mm 4 mps 722 mmHg 79%
    15:00 +29°C° 0.4 mm 4 mps 722 mmHg 79%
    16:00 +28°C° 0.2 mm 3 mps 722 mmHg 81%
    17:00 +28°C° 0.2 mm 3 mps 722 mmHg 84%
    18:00 +27°C° 0.2 mm 3 mps 722 mmHg 86%
    19:00 +26°C° 0.6 mm 3 mps 722 mmHg 88%
    20:00 +25°C° 0.6 mm 3 mps 723 mmHg 90%
    21:00 +23°C° 0.6 mm 4 mps 723 mmHg 93%
    22:00 +24°C° 0 mm 3 mps 723 mmHg 93%
    23:00 +24°C° 0 mm 3 mps 723 mmHg 93%
    Show more